Location: Dampvalley
(47.9094°N, 6.1967°E)
Time: 20:25:05
(UTC+00:00)

Cosmos 2322 Rocket - Pass Details

Date: 05 March 2021
Orbit: 832 x 852 km, 71.0° (Epoch: 20 April)

Event Time Altitude Azimuth Distance (km) Brightness Sun altitude
Rises 01:57:50 0° 336° (NNW) 3,402 5.6 -39.7°
Reaches altitude 10° 02:00:36 10° 348° (NNW) 2,468 4.9 -39.3°
Enters shadow 02:01:50 16° 356° (N) 2,101 4.6 -39.2°
Exits shadow 02:08:17 20° 92° (E) 1,861 4.3 -38.4°
Drops below altitude 10° 02:10:26 10° 108° (ESE) 2,468 4.9 -38.1°
Sets 02:13:11 0° 120° (ESE) 3,403 5.6 -37.8°
